[[{"header":{"parameterUnit":"m.s-1","parameterCategory":2,"la1":30.2991,"la2":30.254,"lo1":-89.0895,"lo2":-89.0444,"dy":0.0017,"dx":0.0017,"nx":28,"ny":28,"refTime":"2024-07-22T21:00:00:Z","depth":"0","parameterNumber":2,"parameterNumberName":"U-component_of_CURRENTS"},"data":[0,0,0,0,0,0,0,0,0,0,0,0,0,0,0,0,0,0,0,0,0,0,0,0,0,0,0,0,0,0,0,0,0,0,0,0,0,0,0,0,0,0,0,0,0,0,0,0,0,0,0,0,0,0,0,0,0,0,-0.2498,-0.2499,0,-0.2495,-0.2494,-0.2494,-0.2445,-0.2444,-0.2443,-0.2443,-0.2365,-0.2363,-0.2362,0,0,0,0,0,0,0,0,0,0,0,0,0,-0.2361,-0.2364,-0.2498,-0.2499,-0.2499,-0.2495,-0.2494,-0.2494,-0.2445,-0.2444,-0.2443,-0.2442,-0.2365,-0.2363,-0.2362,0,0,0,0,0,0,0,0,0,0,0,0,0,-0.239,-0.2365,-0.2498,-0.2478,-0.2477,-0.2495,-0.2494,-0.2494,-0.2445,-0.2444,-0.2443,-0.2442,-0.2366,-0.2364,-0.2362,-0.237,0,0,-0.2355,-0.2354,0,0,0,0,0,0,0,0,-0.2389,-0.2395,-0.2481,-0.248,-0.2479,-0.2474,-0.2418,-0.2451,-0.2445,-0.2451,-0.2443,-0.2441,-0.2399,-0.2394,-0.2389,-0.2367,-0.2363,-0.2355,-0.2354,-0.2353,-0.2352,0,0,0,0,0,0,0,-0.2387,-0.2394,-0.2491,-0.2482,-0.248,-0.2435,-0.2439,-0.2423,-0.2425,-0.2451,-0.2449,-0.2458,-0.2397,-0.2391,-0.2386,-0.2362,-0.2355,-0.2353,-0.2352,-0.2351,-0.2385,-0.2387,0,0,0,0,0,0,-0.2406,-0.2393,-0.2491,-0.2492,-0.2436,-0.244,-0.2443,-0.2472,-0.2427,-0.2422,-0.2459,-0.2455,-0.2395,-0.2389,-0.2383,-0.2417,-0.2353,-0.2351,-0.235,-0.2383,-0.2386,-0.2388,0,0,0,0,0,0,-0.2404,-0.2416,-0.2492,-0.2445,-0.2452,-0.2445,-0.2477,-0.2473,-0.2467,-0.2435,-0.2426,-0.2458,-0.2394,-0.2386,-0.2396,-0.2412,-0.235,-0.2348,-0.2381,-0.2384,-0.2387,-0.2467,0,0,0,0,0,0,-0.24,-0.2415,-0.2437,-0.2447,-0.2456,-0.2538,-0.2478,-0.2474,-0.2477,-0.2473,-0.2432,-0.2423,-0.2393,-0.24,-0.2394,-0.2408,-0.2346,-0.2378,-0.2382,-0.2386,-0.2462,-0.2473,-0.2482,0,0,0,0,0,-0.2395,-0.2442,-0.2439,-0.245,-0.2489,-0.2542,-0.2543,-0.2526,-0.2478,-0.2508,-0.2472,-0.2424,-0.2421,-0.24,-0.2393,-0.2407,-0.2376,-0.2381,-0.2386,-0.2457,-0.247,-0.2482,0,0,0,0,0,0,-0.2396,-0.2443,-0.2439,-0.2497,-0.2532,-0.2536,-0.2552,-0.2533,-0.2525,-0.2502,-0.2453,-0.2446,-0.2462,-0.2433,-0.2411,-0.2433,-0.239,-0.2394,-0.2447,-0.2459,-0.2469,-0.2469,-0.2345,0,0,0,0,0,-0.2409,-0.2448,-0.2492,-0.2534,-0.2556,-0.2549,-0.2559,-0.2553,-0.255,-0.2543,-0.2516,-0.2486,-0.2478,-0.2467,-0.2462,-0.247,-0.243,-0.2477,-0.2487,-0.2495,-0.2494,-0.2487,-0.2496,-0.2404,-0.2404,-0.2404,0,0,-0.241,-0.2447,-0.2463,-0.2535,-0.2546,-0.2584,-0.2552,-0.2583,-0.2596,-0.2536,-0.2539,-0.2526,-0.2493,-0.2511,-0.2513,-0.2483,-0.2497,-0.2502,-0.2509,-0.2503,-0.2493,-0.2501,-0.2509,-0.2408,-0.2407,-0.2406,0,0,-0.2443,-0.2479,-0.2522,-0.2561,-0.2605,-0.2611,-0.2625,-0.2643,-0.2639,-0.2656,-0.2614,-0.2615,-0.2598,-0.2584,-0.2569,-0.2632,-0.256,-0.2631,-0.2667,-0.2661,-0.2668,-0.2673,-0.2609,-0.2608,-0.2625,-0.2625,-0.2625,0,-0.2434,-0.2497,-0.2543,-0.2598,-0.2615,-0.2625,-0.2659,-0.2675,-0.2688,-0.2685,-0.2671,-0.2649,-0.2629,-0.263,-0.266,-0.2651,-0.262,-0.2618,-0.2672,-0.2677,-0.2681,-0.2614,-0.2612,-0.263,-0.2629,-0.2629,-0.2628,0,-0.2499,-0.2541,-0.2572,-0.2634,-0.2678,-0.2706,-0.2746,-0.277,-0.2751,-0.275,-0.2762,-0.2747,-0.2727,-0.2732,-0.2712,-0.2736,-0.2693,-0.2692,-0.2635,-0.2695,-0.262,-0.2617,-0.2636,-0.2634,-0.2633,-0.2632,0,0,-0.2453,-0.2585,-0.2582,-0.2613,-0.2684,-0.2722,-0.2767,-0.2802,-0.2812,-0.2825,-0.2829,-0.2832,-0.2815,-0.28,-0.278,-0.278,-0.2782,-0.2756,-0.2754,-0.268,-0.2729,-0.261,-0.2593,-0.2797,-0.2797,-0.2798,-0.2654,0,-0.2458,-0.255,-0.2616,-0.2672,-0.2711,-0.2755,-0.2799,-0.2838,-0.2855,-0.2879,-0.286,-0.2865,-0.2842,-0.2835,-0.2838,-0.2819,-0.2782,-0.2818,-0.2692,-0.2687,-0.2565,-0.2589,-0.2455,-0.231,-0.265,-0.265,-0.2649,0,-0.2452,-0.2526,-0.2593,-0.2682,-0.2703,-0.2743,-0.2796,-0.2839,-0.2888,-0.2904,-0.2909,-0.2908,-0.2911,-0.2887,-0.2842,-0.287,-0.2798,-0.2766,-0.2759,-0.2618,-0.2563,-0.2312,-0.2289,-0.2272,-0.2643,-0.2643,-0.2644,0,-0.236,-0.2473,-0.2519,-0.2553,-0.2685,-0.271,-0.2752,-0.2824,-0.2856,-0.2909,-0.2927,-0.294,-0.2912,-0.289,-0.2804,-0.284,-0.2727,-0.2762,-0.2561,-0.2549,-0.2392,-0.2365,-0.2326,-0.2693,-0.2693,-0.2694,-0.2694,0,-0.2304,-0.2331,-0.248,-0.2514,-0.2561,-0.2662,-0.2701,-0.2758,-0.2831,-0.2835,-0.2915,-0.2894,-0.2917,-0.2853,-0.2806,-0.2647,-0.2707,-0.2556,-0.2514,-0.2413,-0.2391,-0.2334,-0.2381,-0.2688,-0.2689,-0.269,-0.2691,0,-0.2179,-0.2276,-0.234,-0.2485,-0.2523,-0.2546,-0.2654,-0.2676,-0.277,-0.2779,-0.2792,-0.2846,-0.2762,-0.2728,-0.2648,-0.2594,-0.244,-0.2398,-0.2245,-0.2189,-0.2048,-0.2104,-0.2024,-0.1971,-0.2212,-0.2208,-0.2205,0,-0.2124,-0.2152,-0.2294,-0.232,-0.2379,-0.2441,-0.2473,-0.2606,-0.2629,-0.2705,-0.2681,-0.2647,-0.254,-0.2398,-0.2312,-0.2177,-0.2212,-0.1989,-0.205,-0.2007,-0.2041,-0.2106,-0.2075,-0.1856,-0.1851,-0.1846,-0.1842,0,-0.2014,-0.2058,-0.2113,-0.2184,-0.2226,-0.2276,-0.233,-0.236,-0.247,-0.2471,-0.2416,-0.2349,-0.2222,-0.204,-0.1903,-0.1828,-0.197,-0.1889,-0.19,-0.1801,-0.1816,-0.1752,-0.1957,-0.1801,-0.1805,-0.1808,-0.181,-0.1812,-0.189,-0.1891,-0.1959,-0.2005,-0.2048,-0.2062,-0.2025,-0.2079,-0.2066,-0.199,-0.2054,-0.1836,-0.183,-0.1631,-0.1568,-0.1474,-0.1605,-0.146,-0.1536,-0.161,-0.1558,-0.1643,-0.1418,-0.142,-0.1422,-0.1423,-0.1425,0,-0.1727,-0.1744,-0.1775,-0.1805,-0.1759,-0.1858,-0.1878,-0.1787,-0.1663,-0.1586,-0.1455,-0.1281,-0.1199,-0.1227,-0.1218,-0.116,-0.1179,-0.1158,-0.1244,-0.1233,-0.1323,-0.1306,-0.0979,-0.0979,-0.098,-0.098,-0.098,-0.098,-0.1633,-0.1597,-0.1627,-0.1508,-0.1505,-0.1376,-0.1336,-0.1227,-0.1126,-0.0846,-0.0655,-0.0553,-0.0761,-0.1089,-0.1112,-0.1056,-0.1086,-0.1024,-0.1111,-0.1204,-0.124,-0.1275,-0.1269,-0.094,-0.094,-0.0943,-0.0943,-0.0943]},{"header":{"parameterUnit":"m.s-1","parameterCategory":2,"la1":30.2991,"la2":30.254,"lo1":-89.0895,"lo2":-89.0444,"dy":0.0017,"dx":0.0017,"nx":28,"ny":28,"refTime":"2024-07-22T21:00:00:Z","depth":"0","parameterNumber":3,"parameterNumberName":"V-component_of_CURRENTS"},"data":[0,0,0,0,0,0,0,0,0,0,0,0,0,0,0,0,0,0,0,0,0,0,0,0,0,0,0,0,0,0,0,0,0,0,0,0,0,0,0,0,0,0,0,0,0,0,0,0,0,0,0,0,0,0,0,0,0,0,-0.0122,-0.0121,0,-0.0015,-0.0014,-0.0013,0.008,0.0082,0.0083,0.0084,0.0205,0.0207,0.0209,0,0,0,0,0,0,0,0,0,0,0,0,0,-0.0193,-0.0192,-0.0122,-0.0121,-0.0119,-0.0016,-0.0014,-0.0013,0.008,0.0082,0.0083,0.0084,0.0204,0.0207,0.0209,0,0,0,0,0,0,0,0,0,0,0,0,0,-0.0132,-0.0192,-0.0122,-0.006,-0.0053,-0.0016,-0.0014,-0.0012,0.008,0.0082,0.0083,0.0085,0.0203,0.0206,0.021,0.0196,0,0,0.022,0.0221,0,0,0,0,0,0,0,0,-0.0136,-0.013,-0.007,-0.0064,-0.0057,0.0021,0.0005,0.0058,0.008,0.0029,0.0084,0.0086,0.0144,0.0152,0.0167,0.0201,0.0207,0.022,0.0222,0.0223,0.0224,0,0,0,0,0,0,0,-0.014,-0.0134,-0.008,-0.0069,-0.0061,-0.0019,-0.0009,0.0016,0.0075,0.0033,0.0041,0.0053,0.0148,0.0164,0.0171,0.0208,0.022,0.0223,0.0225,0.0226,0.0285,0.0284,0,0,0,0,0,0,-0.0157,-0.0138,-0.0084,-0.0077,-0.0092,-0.002,-0.0009,-0.0006,0.0075,0.0089,0.0051,0.0057,0.0158,0.0167,0.0176,0.0175,0.0223,0.0226,0.0228,0.0285,0.0284,0.0284,0,0,0,0,0,0,-0.0159,-0.0154,-0.0088,-0.0104,-0.0093,-0.0021,-0.0018,-0.0005,0.0017,0.0089,0.0103,0.006,0.0159,0.0171,0.0198,0.018,0.0228,0.0231,0.0285,0.0285,0.0284,0.0166,0,0,0,0,0,0,-0.0162,-0.0155,-0.0163,-0.0106,-0.0092,-0.007,-0.0019,-0.0004,0.0022,0.0031,0.01,0.0114,0.0162,0.0193,0.0202,0.0185,0.0233,0.0286,0.0285,0.0284,0.017,0.0161,0.0154,0,0,0,0,0,-0.0165,-0.0184,-0.0164,-0.0157,-0.0104,-0.0071,-0.0061,-0.0003,0.0021,0.0023,0.0071,0.0112,0.0195,0.0195,0.0205,0.0189,0.0286,0.0285,0.0284,0.0174,0.0163,0.0154,0,0,0,0,0,0,-0.0223,-0.0174,-0.0152,-0.0156,-0.0118,-0.0055,-0.005,-0.0014,0.0024,0.003,0.0099,0.0114,0.014,0.0177,0.0175,0.0207,0.025,0.0251,0.0163,0.0153,0.0145,0.01,0.0236,0,0,0,0,0,-0.0241,-0.0241,-0.0185,-0.0192,-0.0176,-0.0117,-0.0098,-0.0062,-0.0018,0.0002,0.0052,0.0102,0.0141,0.0156,0.0203,0.0203,0.0256,0.0205,0.0196,0.0189,0.0161,0.0196,0.0188,0.0281,0.0281,0.0281,0,0,-0.0268,-0.024,-0.0241,-0.0204,-0.0171,-0.0176,-0.0102,-0.0082,-0.0087,0.0005,0.0012,0.0077,0.0139,0.0154,0.0167,0.0181,0.0205,0.0188,0.018,0.0156,0.0194,0.0185,0.0177,0.0281,0.0281,0.0281,0,0,-0.0331,-0.0296,-0.0322,-0.0299,-0.0257,-0.0219,-0.0219,-0.016,-0.0132,-0.0115,-0.0046,-0.0004,0.0055,0.0091,0.0117,0.0084,0.0167,0.0112,0.0019,0.0054,0.0046,0.0039,0.0151,0.0155,0.0097,0.0097,0.0097,0,-0.0368,-0.0387,-0.0324,-0.0345,-0.0338,-0.025,-0.028,-0.0247,-0.0187,-0.0177,-0.0127,-0.0038,0.0018,0.0027,0.0021,0.0061,0.0121,0.0048,0.004,0.0034,0.0029,0.0145,0.015,0.0091,0.0092,0.0092,0.0093,0,-0.0451,-0.0465,-0.0477,-0.0476,-0.0461,-0.0466,-0.0413,-0.0397,-0.0346,-0.0303,-0.0262,-0.0174,-0.0127,-0.0092,-0.0049,-0.0055,0.0018,0.0032,0.0056,0.0012,0.0139,0.0147,0.0083,0.0085,0.0086,0.0088,0,0,-0.0529,-0.0537,-0.054,-0.0569,-0.0527,-0.0532,-0.054,-0.0519,-0.0529,-0.045,-0.0444,-0.0371,-0.0305,-0.0273,-0.0196,-0.0167,-0.0123,-0.0098,-0.0093,-0.0002,0.0011,0.0075,0.0092,-0.0116,-0.0117,-0.0117,0.0134,0,-0.061,-0.0689,-0.0657,-0.073,-0.0764,-0.0698,-0.0712,-0.0684,-0.0625,-0.0593,-0.0494,-0.0451,-0.0379,-0.0345,-0.0311,-0.0155,-0.0117,-0.0189,0.0053,0.0061,0.0108,0.0096,0.0153,0.038,0.0142,0.0144,0.0145,0,-0.0692,-0.0736,-0.0824,-0.0862,-0.0869,-0.0895,-0.0897,-0.0894,-0.0825,-0.0773,-0.0713,-0.0614,-0.0531,-0.047,-0.0271,-0.0316,-0.0187,-0.0069,-0.0057,0.0035,0.0136,0.0377,0.0404,0.0559,0.0158,0.0157,0.0156,0,-0.078,-0.0847,-0.0924,-0.0938,-0.0966,-0.0995,-0.0997,-0.0955,-0.0949,-0.0881,-0.0841,-0.0732,-0.0622,-0.0496,-0.024,-0.0263,0.0008,0.0014,0.0197,0.0209,0.0318,0.0338,0.0501,0.0104,0.0103,0.0102,0.0102,0,-0.0865,-0.0927,-0.0979,-0.1027,-0.1116,-0.1095,-0.115,-0.113,-0.1079,-0.1051,-0.0939,-0.0846,-0.0631,-0.0434,-0.0259,0.0028,-0.0001,0.018,0.0254,0.0288,0.0301,0.0489,0.0542,0.0112,0.011,0.0108,0.0106,0,-0.0929,-0.0965,-0.1062,-0.113,-0.116,-0.1217,-0.1247,-0.1272,-0.1207,-0.1157,-0.1133,-0.0904,-0.0624,-0.0387,-0.009,0.0048,0.0396,0.0374,0.0442,0.0514,0.0776,0.0819,0.1036,0.1149,0.0601,0.0604,0.0606,0,-0.0959,-0.1021,-0.1139,-0.12,-0.1233,-0.131,-0.1353,-0.1339,-0.1345,-0.1162,-0.1131,-0.0847,-0.0578,-0.0095,0.0168,0.0493,0.0576,0.0699,0.0619,0.0793,0.0897,0.0903,0.0982,0.0772,0.0775,0.0778,0.078,0,-0.1002,-0.1044,-0.1121,-0.1261,-0.1342,-0.1425,-0.1479,-0.1503,-0.1433,-0.1341,-0.1078,-0.0826,-0.0321,0.0128,0.0506,0.0665,0.0811,0.0764,0.0915,0.1003,0.1051,0.1196,0.0661,0.0805,0.0803,0.0801,0.08,0.0799,-0.1001,-0.1071,-0.1174,-0.1299,-0.1401,-0.1486,-0.152,-0.1534,-0.1491,-0.1277,-0.1002,-0.0507,0.0095,0.0668,0.0847,0.1141,0.1058,0.1218,0.126,0.1252,0.1324,0.0862,0.1083,0.1082,0.1081,0.108,0.108,0,-0.0975,-0.107,-0.1199,-0.1337,-0.1428,-0.1484,-0.1555,-0.1528,-0.1436,-0.1154,-0.0813,0.0095,0.0614,0.1064,0.1463,0.1635,0.165,0.1697,0.1721,0.178,0.1371,0.1336,0.1656,0.1656,0.1655,0.1655,0.1655,0.1655,-0.0958,-0.1065,-0.1153,-0.13,-0.1392,-0.1453,-0.147,-0.141,-0.1224,-0.0685,-0.0114,0.0397,0.1073,0.1675,0.2035,0.2059,0.222,0.2178,0.2271,0.1982,0.194,0.1899,0.1879,0.2307,0.2308,0.2674,0.2678,0.2681]}],[{"header":{"parameterUnit":"m.s-1","parameterCategory":2,"la1":30.2991,"la2":30.254,"lo1":-89.0895,"lo2":-89.0444,"dy":0.0017,"dx":0.0017,"nx":28,"ny":28,"refTime":"2024-07-22T21:00:00:Z","depth":"2","parameterNumber":2,"parameterNumberName":"U-component_of_CURRENTS"},"data":[0,0,0,0,0,0,0,0,0,0,0,0,0,0,0,0,0,0,0,0,0,0,0,0,0,0,0,0,0,0,0,0,0,0,0,0,0,0,0,0,0,0,0,0,0,0,0,0,0,0,0,0,0,0,0,0,0,0,-0.2251,-0.2251,0,-0.2306,-0.2307,-0.2307,-0.2305,-0.2304,-0.2304,-0.2303,-0.2358,-0.236,-0.2362,0,0,0,0,0,0,0,0,0,0,0,0,0,-0.2146,-0.2147,-0.225,-0.2251,-0.2252,-0.2306,-0.2307,-0.2307,-0.2305,-0.2304,-0.2304,-0.2303,-0.2358,-0.236,-0.2362,0,0,0,0,0,0,0,0,0,0,0,0,0,-0.2192,-0.2148,-0.225,-0.226,-0.2262,-0.2306,-0.2307,-0.2307,-0.2305,-0.2304,-0.2303,-0.2303,-0.2357,-0.236,-0.2363,-0.2395,0,0,-0.2371,-0.2373,0,0,0,0,0,0,0,0,-0.2189,-0.2195,-0.2258,-0.226,-0.2262,-0.2301,-0.229,-0.2338,-0.2305,-0.2285,-0.2303,-0.2302,-0.2342,-0.2346,-0.2353,-0.2397,-0.24,-0.2372,-0.2373,-0.2375,-0.2375,0,0,0,0,0,0,0,-0.2186,-0.2193,-0.2269,-0.2259,-0.2261,-0.2263,-0.2269,-0.2299,-0.2314,-0.2287,-0.2287,-0.2299,-0.2342,-0.235,-0.2354,-0.24,-0.2372,-0.2374,-0.2376,-0.2377,-0.2454,-0.2455,0,0,0,0,0,0,-0.2187,-0.219,-0.2267,-0.2271,-0.2227,-0.2266,-0.2272,-0.2286,-0.2314,-0.2318,-0.23,-0.2299,-0.2346,-0.2351,-0.2356,-0.2399,-0.2375,-0.2377,-0.2379,-0.2454,-0.2454,-0.2455,0,0,0,0,0,0,-0.2185,-0.2193,-0.2265,-0.2234,-0.2244,-0.2269,-0.2285,-0.2288,-0.23,-0.2324,-0.2328,-0.231,-0.2345,-0.2352,-0.2376,-0.2401,-0.2379,-0.2381,-0.2454,-0.2454,-0.2455,-0.2482,0,0,0,0,0,0,-0.2181,-0.2192,-0.2203,-0.2235,-0.2246,-0.2291,-0.2286,-0.2289,-0.231,-0.2309,-0.2335,-0.2339,-0.2345,-0.2372,-0.2379,-0.2404,-0.2383,-0.2453,-0.2454,-0.2454,-0.2481,-0.2484,-0.2486,0,0,0,0,0,-0.2177,-0.2192,-0.2204,-0.2213,-0.226,-0.2292,-0.2297,-0.231,-0.2311,-0.2318,-0.2328,-0.2338,-0.238,-0.2374,-0.2383,-0.241,-0.2453,-0.2454,-0.2454,-0.248,-0.2483,-0.2486,0,0,0,0,0,0,-0.2153,-0.2195,-0.2207,-0.2235,-0.2263,-0.2292,-0.2303,-0.2316,-0.2332,-0.2331,-0.2346,-0.2351,-0.238,-0.2388,-0.2381,-0.2431,-0.2418,-0.242,-0.2434,-0.2438,-0.244,-0.2442,-0.2386,0,0,0,0,0,-0.2155,-0.2173,-0.2215,-0.2235,-0.2251,-0.228,-0.2296,-0.2309,-0.2329,-0.2335,-0.2351,-0.2368,-0.2391,-0.2407,-0.2422,-0.2458,-0.2443,-0.2478,-0.248,-0.2482,-0.2488,-0.2475,-0.2477,-0.2457,-0.2457,-0.2457,0,0,-0.2151,-0.2177,-0.2187,-0.2231,-0.2252,-0.2289,-0.2286,-0.2313,-0.2344,-0.234,-0.2375,-0.2379,-0.2399,-0.2429,-0.2444,-0.2441,-0.2478,-0.2483,-0.2485,-0.249,-0.2476,-0.2478,-0.248,-0.2458,-0.2458,-0.2457,0,0,-0.2154,-0.2176,-0.2196,-0.2227,-0.2268,-0.2291,-0.2302,-0.2338,-0.235,-0.2387,-0.2387,-0.24,-0.2442,-0.2453,-0.2468,-0.2496,-0.2488,-0.2506,-0.2531,-0.2519,-0.252,-0.2521,-0.2495,-0.2494,-0.2512,-0.2512,-0.2512,0,-0.2149,-0.2184,-0.2205,-0.2241,-0.227,-0.2296,-0.2332,-0.2358,-0.2394,-0.2407,-0.2399,-0.2441,-0.2454,-0.2493,-0.25,-0.2504,-0.2489,-0.252,-0.2522,-0.2523,-0.2524,-0.2497,-0.2495,-0.2514,-0.2514,-0.2514,-0.2513,0,-0.2174,-0.2208,-0.2222,-0.2277,-0.231,-0.234,-0.2388,-0.2414,-0.2431,-0.2452,-0.2481,-0.2486,-0.2507,-0.2518,-0.2524,-0.2544,-0.2528,-0.2522,-0.2515,-0.2527,-0.2498,-0.2496,-0.2516,-0.2515,-0.2515,-0.2515,0,0,-0.2139,-0.2223,-0.2226,-0.2261,-0.2331,-0.2358,-0.2415,-0.2464,-0.2494,-0.2515,-0.2542,-0.2571,-0.2558,-0.2572,-0.2573,-0.257,-0.2559,-0.2554,-0.2553,-0.2529,-0.2521,-0.2422,-0.2409,-0.2554,-0.2554,-0.2554,-0.2494,0,-0.2149,-0.2213,-0.2256,-0.2319,-0.2358,-0.2409,-0.2461,-0.2509,-0.2536,-0.2566,-0.2573,-0.2594,-0.2586,-0.2589,-0.2587,-0.2567,-0.2556,-0.2575,-0.2512,-0.251,-0.242,-0.2404,-0.2222,-0.2146,-0.2492,-0.2491,-0.2491,0,-0.2152,-0.2198,-0.2257,-0.2345,-0.2366,-0.2408,-0.2479,-0.2528,-0.2583,-0.2603,-0.262,-0.2623,-0.2631,-0.2613,-0.2583,-0.2595,-0.2562,-0.2541,-0.2538,-0.2435,-0.2406,-0.2191,-0.2128,-0.2487,-0.2487,-0.2488,-0.2488,0,-0.2101,-0.2193,-0.2234,-0.2267,-0.2373,-0.2404,-0.2455,-0.2525,-0.2559,-0.2611,-0.2625,-0.2641,-0.2631,-0.2607,-0.2563,-0.2573,-0.2513,-0.2519,-0.2397,-0.2389,-0.2216,-0.2192,-0.2489,-0.249,-0.249,-0.249,-0.249,0,-0.209,-0.2122,-0.2212,-0.2238,-0.2285,-0.2373,-0.2416,-0.2477,-0.2545,-0.2567,-0.2623,-0.2623,-0.2628,-0.2598,-0.2563,-0.2458,-0.2506,-0.2391,-0.2364,-0.2218,-0.2197,-0.2484,-0.2484,-0.2488,-0.2488,-0.2489,-0.2489,0,-0.2022,-0.2089,-0.2135,-0.2234,-0.2261,-0.2288,-0.238,-0.2409,-0.2494,-0.2521,-0.2534,-0.2594,-0.2539,-0.2525,-0.2474,-0.2432,-0.2363,-0.2315,-0.2136,-0.2089,-0.2249,-0.2252,-0.2172,-0.2168,-0.2165,-0.2162,-0.2159,0,-0.1992,-0.2008,-0.2093,-0.2108,-0.2146,-0.22,-0.2235,-0.2353,-0.2382,-0.2481,-0.2477,-0.2473,-0.242,-0.2321,-0.2227,-0.2126,-0.2236,-0.194,-0.1927,-0.2232,-0.2216,-0.2224,-0.2231,-0.1707,-0.1701,-0.1696,-0.1692,0,-0.1918,-0.194,-0.1974,-0.1999,-0.2032,-0.207,-0.2129,-0.2148,-0.2272,-0.2303,-0.2318,-0.2293,-0.2202,-0.2008,-0.1901,-0.1832,-0.1944,-0.1837,-0.2187,-0.182,-0.1789,-0.1775,-0.1798,-0.1649,-0.1653,-0.1657,-0.1659,-0.1661,-0.1834,-0.1828,-0.1856,-0.1868,-0.1904,-0.1907,-0.188,-0.1943,-0.1961,-0.1967,-0.2079,-0.1988,-0.1961,-0.1669,-0.1561,-0.1478,-0.1615,-0.1573,-0.1589,-0.1611,-0.1572,-0.1537,-0.1342,-0.1344,-0.1346,-0.1348,-0.135,0,-0.1723,-0.1723,-0.1723,-0.1727,-0.1696,-0.1763,-0.1779,-0.1719,-0.1665,-0.1707,-0.1696,-0.1529,-0.1381,-0.1352,-0.1136,-0.1101,-0.1108,-0.1075,-0.1092,-0.1134,-0.1172,-0.1113,-0.076,-0.0758,-0.0757,-0.0756,0,0,-0.1666,-0.1621,-0.1618,-0.1517,-0.1507,-0.1416,-0.1385,-0.1322,-0.1307,-0.1223,-0.1191,-0.1301,-0.1314,-0.1053,-0.0975,-0.083,-0.0979,-0.0783,-0.1251,-0.1313,-0.1349,-0.1446,-0.14,0,0,0,0,0]},{"header":{"parameterUnit":"m.s-1","parameterCategory":2,"la1":30.2991,"la2":30.254,"lo1":-89.0895,"lo2":-89.0444,"dy":0.0017,"dx":0.0017,"nx":28,"ny":28,"refTime":"2024-07-22T21:00:00:Z","depth":"2","parameterNumber":3,"parameterNumberName":"V-component_of_CURRENTS"},"data":[0,0,0,0,0,0,0,0,0,0,0,0,0,0,0,0,0,0,0,0,0,0,0,0,0,0,0,0,0,0,0,0,0,0,0,0,0,0,0,0,0,0,0,0,0,0,0,0,0,0,0,0,0,0,0,0,0,0,-0.0234,-0.0233,0,-0.0173,-0.0172,-0.0172,-0.0119,-0.0118,-0.0117,-0.0117,0.0005,0.0007,0.001,0,0,0,0,0,0,0,0,0,0,0,0,0,-0.0258,-0.0258,-0.0234,-0.0233,-0.0233,-0.0173,-0.0172,-0.0171,-0.0119,-0.0118,-0.0117,-0.0117,0.0004,0.0007,0.001,0,0,0,0,0,0,0,0,0,0,0,0,0,-0.0227,-0.0258,-0.0234,-0.02,-0.0196,-0.0173,-0.0172,-0.0171,-0.0119,-0.0118,-0.0117,-0.0116,0.0003,0.0007,0.0011,0.002,0,0,0.0023,0.0025,0,0,0,0,0,0,0,0,-0.0229,-0.0226,-0.0205,-0.0202,-0.0198,-0.0153,-0.0136,-0.0104,-0.0119,-0.0147,-0.0117,-0.0116,-0.0044,-0.0036,-0.0026,0.0026,0.0031,0.0024,0.0026,0.0028,0.0029,0,0,0,0,0,0,0,-0.0231,-0.0228,-0.0209,-0.0205,-0.02,-0.0171,-0.0167,-0.013,-0.0099,-0.0145,-0.0141,-0.0136,-0.0041,-0.003,-0.0022,0.0033,0.0024,0.0027,0.003,0.0031,0.0118,0.0118,0,0,0,0,0,0,-0.0243,-0.023,-0.0211,-0.0207,-0.0213,-0.0172,-0.0166,-0.0168,-0.01,-0.009,-0.0137,-0.0134,-0.0037,-0.0027,-0.0018,0.0018,0.0028,0.0032,0.0034,0.0118,0.0118,0.0118,0,0,0,0,0,0,-0.0244,-0.0243,-0.0213,-0.0217,-0.0212,-0.0173,-0.0175,-0.0167,-0.0154,-0.0095,-0.0083,-0.0131,-0.0036,-0.0024,0.0014,0.0023,0.0034,0.0037,0.0118,0.0118,0.0118,0.0077,0,0,0,0,0,0,-0.0245,-0.0244,-0.0249,-0.0219,-0.0212,-0.0207,-0.0175,-0.0166,-0.0153,-0.0148,-0.0087,-0.0075,-0.0035,0.0007,0.0018,0.0028,0.0041,0.0118,0.0118,0.0118,0.0079,0.0075,0.0073,0,0,0,0,0,-0.0247,-0.0261,-0.025,-0.0247,-0.0221,-0.0208,-0.0202,-0.017,-0.0153,-0.0154,-0.011,-0.0077,0.0013,0.001,0.0023,0.0035,0.0119,0.0118,0.0118,0.008,0.0076,0.0073,0,0,0,0,0,0,-0.0275,-0.0256,-0.0243,-0.0251,-0.0234,-0.0199,-0.0198,-0.0176,-0.0143,-0.0137,-0.0079,-0.0064,-0.0028,0.0004,-0.0001,0.0057,0.0071,0.0073,0.0038,0.0035,0.0032,0.0026,0.0044,0,0,0,0,0,-0.0286,-0.0291,-0.0266,-0.0273,-0.0266,-0.0233,-0.0223,-0.0204,-0.0172,-0.0157,-0.0113,-0.0065,-0.0021,0.0006,0.0043,0.0075,0.011,0.009,0.0087,0.0084,0.0086,0.0148,0.0151,0.0116,0.0116,0.0116,0,0,-0.0298,-0.0289,-0.0292,-0.0279,-0.0262,-0.0258,-0.0225,-0.0218,-0.0207,-0.0148,-0.0119,-0.0076,-0.0017,0.0019,0.0039,0.0049,0.0109,0.0084,0.0081,0.0085,0.0148,0.0151,0.0155,0.0116,0.0116,0.0116,0,0,-0.0331,-0.032,-0.0335,-0.0325,-0.0308,-0.0283,-0.0285,-0.0253,-0.0229,-0.0202,-0.0152,-0.0105,-0.0048,0.0004,0.0037,0.0039,0.0087,0.0048,0.0036,0.0096,0.0099,0.0103,0.0138,0.0145,0.0051,0.0051,0.0051,0,-0.0347,-0.0365,-0.0337,-0.0349,-0.0343,-0.0298,-0.0309,-0.0279,-0.0237,-0.0213,-0.02,-0.0098,-0.0051,0.0015,0.0017,0.0036,0.0066,0.0046,0.0093,0.0097,0.0102,0.0137,0.0145,0.0049,0.0049,0.005,0.005,0,-0.0388,-0.0402,-0.0411,-0.0407,-0.0393,-0.04,-0.0355,-0.0334,-0.0298,-0.0258,-0.0196,-0.0129,-0.0065,-0.0042,-0.0008,0.0049,0.0057,0.0078,0.0102,0.0103,0.0139,0.0149,0.0046,0.0047,0.0048,0.0048,0,0,-0.0426,-0.044,-0.0444,-0.0458,-0.0428,-0.0426,-0.0396,-0.0356,-0.0331,-0.0274,-0.0232,-0.0148,-0.0105,-0.0066,-0.0012,0.0045,0.0099,0.007,0.0074,0.0104,0.0213,0.0249,0.0263,0.0129,0.0131,0.0132,0.022,0,-0.0468,-0.0517,-0.0498,-0.0527,-0.0545,-0.0491,-0.0467,-0.0418,-0.036,-0.0307,-0.0213,-0.0158,-0.0114,-0.0083,-0.0018,0.0071,0.0124,0.0072,0.0208,0.0212,0.0245,0.0276,0.026,0.034,0.023,0.0231,0.0232,0,-0.0511,-0.0543,-0.0589,-0.0596,-0.0595,-0.0595,-0.0545,-0.0518,-0.0417,-0.0368,-0.0283,-0.0208,-0.011,-0.0079,0.0078,0.0041,0.012,0.0188,0.0194,0.0252,0.0267,0.0325,0.0362,0.0249,0.0248,0.0246,0.0245,0,-0.0564,-0.06,-0.0643,-0.0649,-0.0643,-0.0642,-0.0625,-0.0542,-0.0512,-0.0406,-0.0364,-0.0236,-0.0168,-0.005,0.0096,0.0087,0.0267,0.0273,0.0379,0.0382,0.0408,0.041,0.0383,0.0383,0.0383,0.0383,0.0382,0,-0.0619,-0.0654,-0.068,-0.071,-0.0749,-0.0709,-0.0709,-0.0665,-0.0582,-0.0536,-0.0408,-0.0331,-0.0155,-0.0025,0.0092,0.0271,0.0267,0.0388,0.0419,0.0391,0.039,0.0345,0.0339,0.0386,0.0385,0.0385,0.0384,0,-0.0669,-0.0687,-0.0745,-0.077,-0.0782,-0.0809,-0.0794,-0.0779,-0.069,-0.0623,-0.0591,-0.0399,-0.0217,-0.0043,0.0165,0.027,0.0428,0.049,0.0435,0.0458,0.0497,0.0488,0.0612,0.0615,0.0617,0.0618,0.062,0,-0.07,-0.0739,-0.0807,-0.085,-0.0872,-0.0901,-0.0913,-0.0849,-0.0819,-0.0653,-0.0621,-0.042,-0.0247,0.0071,0.0287,0.0506,0.0491,0.0601,0.0592,0.0509,0.0526,0.0514,0.0503,0.0599,0.06,0.0601,0.0602,0,-0.0761,-0.0784,-0.0837,-0.0932,-0.0978,-0.1015,-0.1023,-0.1014,-0.0906,-0.0808,-0.0628,-0.047,-0.0136,0.0148,0.0427,0.054,0.0565,0.0627,0.0581,0.0543,0.0505,0.0518,0.0506,0.0609,0.0609,0.0608,0.0608,0.0607,-0.0801,-0.0854,-0.0926,-0.1011,-0.1065,-0.1105,-0.1117,-0.1069,-0.0996,-0.0803,-0.0659,-0.0371,-0.0107,0.0332,0.0519,0.0681,0.0673,0.0706,0.07,0.0693,0.0676,0.0644,0.0769,0.077,0.077,0.077,0.077,0,-0.085,-0.091,-0.0996,-0.1091,-0.115,-0.1159,-0.1165,-0.1118,-0.1007,-0.0776,-0.0563,-0.0249,0.0079,0.0339,0.063,0.0791,0.0755,0.0788,0.072,0.0712,0.0705,0.0686,0.0783,0.0784,0.0784,0.0784,0,0,-0.0881,-0.0969,-0.1016,-0.1136,-0.1191,-0.1226,-0.1218,-0.1109,-0.0939,-0.0682,-0.0443,-0.0177,0.0143,0.0339,0.0535,0.0687,0.0649,0.068,0.0655,0.0546,0.0537,0.0646,0.0606,0,0,0,0,0]}],[{"header":{"parameterUnit":"m.s-1","parameterCategory":2,"la1":30.2991,"la2":30.254,"lo1":-89.0895,"lo2":-89.0444,"dy":0.0017,"dx":0.0017,"nx":28,"ny":28,"refTime":"2024-07-22T21:00:00:Z","depth":"4","parameterNumber":2,"parameterNumberName":"U-component_of_CURRENTS"},"data":[0,0,0,0,0,0,0,0,0,0,0,0,0,0,0,0,0,0,0,0,0,0,0,0,0,0,0,0,0,0,0,0,0,0,0,0,0,0,0,0,0,0,0,0,0,0,0,0,0,0,0,0,0,0,0,0,0,0,-0.1607,-0.1608,0,-0.1679,-0.168,-0.1681,-0.1723,-0.1724,-0.1724,-0.1724,-0.1792,-0.1793,-0.1795,0,0,0,0,0,0,0,0,0,0,0,0,0,-0.1504,-0.1506,-0.1607,-0.1608,-0.1609,-0.1679,-0.168,-0.1681,-0.1723,-0.1724,-0.1724,-0.1724,-0.1791,-0.1793,-0.1795,0,0,0,0,0,0,0,0,0,0,0,0,0,-0.1558,-0.1506,-0.1607,-0.164,-0.1644,-0.1679,-0.168,-0.1681,-0.1723,-0.1724,-0.1724,-0.1725,-0.1791,-0.1793,-0.1795,-0.1799,0,0,-0.1802,-0.1803,0,0,0,0,0,0,0,0,-0.1555,-0.1562,-0.1634,-0.1638,-0.1642,-0.1694,-0.1669,-0.1721,-0.1723,-0.1691,-0.1724,-0.1725,-0.176,-0.1764,-0.1774,-0.1802,-0.1805,-0.1802,-0.1804,-0.1804,-0.1805,0,0,0,0,0,0,0,-0.1551,-0.1559,-0.1634,-0.1635,-0.164,-0.1651,-0.1659,-0.1679,-0.172,-0.1694,-0.1698,-0.1708,-0.1762,-0.1772,-0.1776,-0.1806,-0.1802,-0.1804,-0.1805,-0.1806,-0.19,-0.1901,0,0,0,0,0,0,-0.1546,-0.1556,-0.1632,-0.1636,-0.1601,-0.1652,-0.1661,-0.1676,-0.172,-0.1728,-0.1708,-0.171,-0.1768,-0.1774,-0.1779,-0.1857,-0.1804,-0.1807,-0.1808,-0.1898,-0.19,-0.1901,0,0,0,0,0,0,-0.1543,-0.1552,-0.1629,-0.1598,-0.1609,-0.1654,-0.1669,-0.1677,-0.1715,-0.1731,-0.1739,-0.1742,-0.1769,-0.1776,-0.1819,-0.1858,-0.1808,-0.181,-0.1897,-0.1899,-0.19,-0.1968,0,0,0,0,0,0,-0.154,-0.1551,-0.1573,-0.1598,-0.1611,-0.1667,-0.1669,-0.1678,-0.172,-0.1724,-0.1762,-0.1767,-0.177,-0.1816,-0.1821,-0.186,-0.1811,-0.1896,-0.1898,-0.19,-0.1965,-0.1972,-0.1979,0,0,0,0,0,-0.1536,-0.1558,-0.1573,-0.1584,-0.1635,-0.1668,-0.1676,-0.1707,-0.1721,-0.1743,-0.1769,-0.1768,-0.1833,-0.1819,-0.1825,-0.1865,-0.1895,-0.1897,-0.19,-0.1961,-0.1971,-0.1978,0,0,0,0,0,0,-0.1527,-0.1565,-0.1583,-0.1617,-0.165,-0.1676,-0.1704,-0.1723,-0.1761,-0.1773,-0.1784,-0.1792,-0.1843,-0.1841,-0.1825,-0.1896,-0.1863,-0.1867,-0.1908,-0.1917,-0.1924,-0.1921,-0.1813,0,0,0,0,0,-0.1534,-0.1562,-0.1597,-0.1627,-0.1647,-0.1681,-0.1704,-0.1726,-0.1756,-0.1775,-0.1802,-0.1828,-0.1854,-0.1876,-0.1894,-0.1936,-0.1915,-0.1963,-0.197,-0.1976,-0.1978,-0.1977,-0.1984,-0.191,-0.191,-0.191,0,0,-0.154,-0.1565,-0.1583,-0.1628,-0.1657,-0.1696,-0.1697,-0.174,-0.178,-0.1775,-0.1843,-0.1856,-0.1869,-0.1916,-0.1939,-0.1924,-0.1987,-0.198,-0.1985,-0.1983,-0.1981,-0.1988,-0.1994,-0.1911,-0.1911,-0.1911,0,0,-0.1556,-0.1589,-0.1617,-0.165,-0.1699,-0.1722,-0.1741,-0.1786,-0.1817,-0.1872,-0.188,-0.1914,-0.1961,-0.1976,-0.1988,-0.2043,-0.2022,-0.2055,-0.2096,-0.2096,-0.2102,-0.2107,-0.2089,-0.2091,-0.2062,-0.2062,-0.2062,0,-0.1566,-0.1604,-0.1631,-0.1669,-0.1702,-0.1738,-0.1779,-0.1816,-0.1872,-0.1897,-0.1904,-0.1972,-0.1987,-0.2035,-0.2058,-0.2061,-0.2049,-0.2066,-0.2106,-0.211,-0.2114,-0.2093,-0.2096,-0.2065,-0.2065,-0.2065,-0.2064,0,-0.1596,-0.1641,-0.1662,-0.1723,-0.1762,-0.1802,-0.1853,-0.19,-0.1941,-0.197,-0.2032,-0.205,-0.2084,-0.2102,-0.2104,-0.2147,-0.2125,-0.2112,-0.2084,-0.2126,-0.2101,-0.2102,-0.2071,-0.2069,-0.2068,-0.2067,0,0,-0.1573,-0.1666,-0.1675,-0.1717,-0.1794,-0.1825,-0.1899,-0.1961,-0.2008,-0.206,-0.211,-0.2161,-0.2165,-0.2177,-0.2183,-0.2194,-0.2217,-0.2175,-0.2173,-0.2155,-0.2207,-0.2049,-0.2034,-0.2214,-0.2215,-0.2216,-0.2177,0,-0.1591,-0.1663,-0.1709,-0.1788,-0.1831,-0.1892,-0.1956,-0.202,-0.207,-0.2126,-0.2153,-0.2199,-0.2195,-0.2216,-0.2229,-0.222,-0.2223,-0.2227,-0.2169,-0.2167,-0.2021,-0.2031,-0.2218,-0.2178,-0.2178,-0.2178,-0.2178,0,-0.1596,-0.1647,-0.1723,-0.1824,-0.185,-0.1907,-0.2004,-0.2063,-0.2143,-0.2182,-0.2225,-0.2243,-0.2278,-0.2263,-0.2264,-0.2269,-0.2246,-0.2232,-0.2229,-0.2056,-0.201,-0.2128,-0.218,-0.218,-0.2179,-0.2179,-0.2179,0,-0.1546,-0.1653,-0.1713,-0.1749,-0.1869,-0.1921,-0.1986,-0.2077,-0.2126,-0.2209,-0.2242,-0.2283,-0.2299,-0.2291,-0.2266,-0.2271,-0.2248,-0.2242,-0.2075,-0.2064,-0.219,-0.2185,-0.2234,-0.2234,-0.2234,-0.2234,-0.2234,0,-0.1526,-0.1579,-0.1701,-0.1734,-0.181,-0.1904,-0.1982,-0.2054,-0.2146,-0.2186,-0.2258,-0.2274,-0.2309,-0.2299,-0.2275,-0.2163,-0.2247,-0.2072,-0.204,-0.2218,-0.2217,-0.219,-0.2185,-0.2233,-0.2233,-0.2234,-0.2234,0,-0.1454,-0.1539,-0.1613,-0.1744,-0.1788,-0.1838,-0.1968,-0.2013,-0.2119,-0.217,-0.2195,-0.2268,-0.2232,-0.2238,-0.2212,-0.2143,-0.2075,-0.2018,-0.2199,-0.218,-0.1891,-0.1891,-0.1817,-0.1811,-0.1806,-0.1801,-0.1798,0,-0.142,-0.1452,-0.1589,-0.1626,-0.1688,-0.178,-0.1836,-0.1974,-0.2015,-0.2136,-0.2138,-0.2159,-0.2175,-0.2004,-0.2034,-0.195,-0.1929,-0.1897,-0.19,-0.187,-0.1848,-0.1855,-0.1861,-0.179,-0.1788,-0.1787,-0.1786,0,-0.1344,-0.1402,-0.1458,-0.1529,-0.1598,-0.1664,-0.1755,-0.1774,-0.1914,-0.2035,-0.2011,-0.1982,-0.1931,-0.1883,-0.1825,-0.1777,-0.1921,-0.1843,-0.1854,-0.1857,-0.1837,-0.1821,-0.1833,-0.1768,-0.1771,-0.1772,-0.1773,0,-0.1276,-0.1289,-0.136,-0.1407,-0.1488,-0.1512,-0.1584,-0.1627,-0.1688,-0.1837,-0.1818,-0.1841,-0.1907,-0.1791,-0.1745,-0.1671,-0.1641,-0.1605,-0.1627,-0.1647,-0.1606,-0.1557,-0.1362,0,0,0,0,0,-0.12,-0.1197,-0.123,-0.1275,-0.1346,-0.1388,-0.151,-0.1586,-0.1729,-0.1661,-0.1738,-0.1682,-0.1605,-0.1623,-0.1499,-0.1644,-0.1639,-0.1497,-0.1609,-0.1671,-0.1691,-0.1657,0,0,0,0,0,0,-0.1149,-0.1177,-0.1183,-0.1147,-0.1147,-0.121,-0.1278,-0.1378,-0.1356,-0.1502,-0.1456,-0.1573,-0.1504,-0.1622,-0.1456,-0.1459,-0.1495,-0.1526,-0.1522,-0.1659,-0.1678,-0.1694,-0.1666,0,0,0,0,0]},{"header":{"parameterUnit":"m.s-1","parameterCategory":2,"la1":30.2991,"la2":30.254,"lo1":-89.0895,"lo2":-89.0444,"dy":0.0017,"dx":0.0017,"nx":28,"ny":28,"refTime":"2024-07-22T21:00:00:Z","depth":"4","parameterNumber":3,"parameterNumberName":"V-component_of_CURRENTS"},"data":[0,0,0,0,0,0,0,0,0,0,0,0,0,0,0,0,0,0,0,0,0,0,0,0,0,0,0,0,0,0,0,0,0,0,0,0,0,0,0,0,0,0,0,0,0,0,0,0,0,0,0,0,0,0,0,0,0,0,-0.0182,-0.0182,0,-0.0149,-0.0148,-0.0148,-0.0112,-0.0111,-0.0111,-0.011,-0.0039,-0.0037,-0.0036,0,0,0,0,0,0,0,0,0,0,0,0,0,-0.0188,-0.0188,-0.0182,-0.0182,-0.0182,-0.0149,-0.0148,-0.0148,-0.0112,-0.0111,-0.0111,-0.011,-0.0039,-0.0038,-0.0036,0,0,0,0,0,0,0,0,0,0,0,0,0,-0.0172,-0.0188,-0.0182,-0.016,-0.0158,-0.0149,-0.0148,-0.0147,-0.0112,-0.0111,-0.0111,-0.011,-0.004,-0.0038,-0.0035,-0.0035,0,0,-0.0029,-0.0028,0,0,0,0,0,0,0,0,-0.0173,-0.0172,-0.0164,-0.0162,-0.0159,-0.0134,-0.0124,-0.0108,-0.0112,-0.0129,-0.011,-0.011,-0.0068,-0.0064,-0.0058,-0.0032,-0.0029,-0.0028,-0.0027,-0.0026,-0.0025,0,0,0,0,0,0,0,-0.0174,-0.0173,-0.0168,-0.0164,-0.0161,-0.0142,-0.014,-0.0121,-0.0101,-0.0127,-0.0125,-0.0122,-0.0066,-0.0061,-0.0056,-0.0028,-0.0029,-0.0027,-0.0025,-0.0024,0.0015,0.0015,0,0,0,0,0,0,-0.0182,-0.0175,-0.0169,-0.0167,-0.0165,-0.0143,-0.014,-0.0142,-0.0102,-0.0096,-0.0123,-0.0121,-0.0065,-0.0059,-0.0054,-0.003,-0.0026,-0.0024,-0.0023,0.0015,0.0015,0.0015,0,0,0,0,0,0,-0.0183,-0.0182,-0.0171,-0.017,-0.0167,-0.0144,-0.0147,-0.0142,-0.0136,-0.01,-0.0092,-0.0122,-0.0064,-0.0057,-0.0037,-0.0028,-0.0023,-0.0021,0.0016,0.0015,0.0015,0.0003,0,0,0,0,0,0,-0.0183,-0.0183,-0.0189,-0.0171,-0.0168,-0.0171,-0.0147,-0.0142,-0.0136,-0.0133,-0.0096,-0.0089,-0.0063,-0.0041,-0.0035,-0.0025,-0.0019,0.0016,0.0015,0.0015,0.0004,0.0002,0.0001,0,0,0,0,0,-0.0183,-0.0196,-0.019,-0.0189,-0.0177,-0.0171,-0.0168,-0.0148,-0.0137,-0.0139,-0.0112,-0.009,-0.004,-0.004,-0.0033,-0.0021,0.0016,0.0016,0.0015,0.0004,0.0002,0.0001,0,0,0,0,0,0,-0.0202,-0.0193,-0.0186,-0.0195,-0.0186,-0.0166,-0.0167,-0.0154,-0.0136,-0.0132,-0.0094,-0.0085,-0.0064,-0.0048,-0.0049,-0.0014,-0.0008,-0.0008,-0.0019,-0.002,-0.0022,-0.0019,-0.0017,0,0,0,0,0,-0.021,-0.0218,-0.0203,-0.0212,-0.0209,-0.019,-0.0185,-0.0174,-0.0155,-0.0146,-0.012,-0.0092,-0.0063,-0.0047,-0.0025,-0.0009,0.0022,0.0002,0.0,-0.0001,0.0005,0.0067,0.0072,0.0012,0.0012,0.0012,0,0,-0.022,-0.0217,-0.0221,-0.0217,-0.0208,-0.0208,-0.0185,-0.0185,-0.0178,-0.0142,-0.0126,-0.0098,-0.0061,-0.0038,-0.0027,-0.0022,0.0027,-0.0002,-0.0003,0.0004,0.0067,0.0073,0.0078,0.0012,0.0012,0.0012,0,0,-0.0246,-0.0241,-0.0255,-0.0251,-0.0244,-0.0228,-0.023,-0.0213,-0.0197,-0.0183,-0.0148,-0.0113,-0.0086,-0.0044,-0.0022,-0.0021,0.0015,-0.0022,-0.002,0.004,0.0046,0.0052,0.0081,0.009,-0.0019,-0.0019,-0.0019,0,-0.0257,-0.0274,-0.0258,-0.0269,-0.0268,-0.0239,-0.025,-0.0229,-0.0206,-0.0187,-0.0183,-0.0112,-0.0082,-0.0027,-0.0026,-0.002,0.0006,-0.0013,0.0041,0.0047,0.0053,0.0082,0.0092,-0.002,-0.002,-0.002,-0.002,0,-0.0289,-0.0303,-0.0312,-0.0313,-0.0306,-0.0315,-0.0284,-0.0271,-0.0248,-0.0218,-0.017,-0.0123,-0.0078,-0.0061,-0.0042,0.0016,0.0016,0.0031,0.0049,0.0059,0.0088,0.0098,-0.0021,-0.0021,-0.002,-0.002,0,0,-0.0315,-0.0332,-0.0337,-0.035,-0.0333,-0.0336,-0.0313,-0.0283,-0.0264,-0.0222,-0.0186,-0.0122,-0.009,-0.0062,-0.0024,0.0033,0.0094,0.0046,0.0049,0.0081,0.0205,0.0188,0.0197,0.0121,0.0123,0.0124,0.0202,0,-0.0346,-0.0387,-0.0376,-0.0404,-0.042,-0.0384,-0.0366,-0.033,-0.0286,-0.0244,-0.0165,-0.0123,-0.0091,-0.007,-0.0004,0.0067,0.0122,0.007,0.0185,0.0188,0.0179,0.021,0.0131,0.021,0.0212,0.0214,0.0215,0,-0.0376,-0.0405,-0.0444,-0.0457,-0.0458,-0.0465,-0.0429,-0.041,-0.0327,-0.0289,-0.0215,-0.0156,-0.0066,-0.0044,0.01,0.0063,0.0131,0.0191,0.0196,0.0195,0.0191,0.0202,0.0234,0.0233,0.0231,0.023,0.0229,0,-0.0411,-0.0448,-0.0486,-0.0493,-0.0497,-0.0502,-0.0495,-0.0429,-0.0407,-0.0317,-0.0283,-0.0167,-0.0113,-0.0,0.012,0.0111,0.0278,0.0281,0.0333,0.0331,0.0328,0.0321,0.0392,0.0392,0.0392,0.0391,0.0391,0,-0.0446,-0.048,-0.0516,-0.0542,-0.0584,-0.0557,-0.0567,-0.0532,-0.0467,-0.043,-0.0318,-0.0252,-0.0096,0.0019,0.0122,0.0256,0.0281,0.0343,0.0361,0.0316,0.0307,0.0334,0.0327,0.0394,0.0394,0.0393,0.0393,0,-0.0476,-0.0499,-0.0554,-0.059,-0.0608,-0.0638,-0.0644,-0.0635,-0.0563,-0.0509,-0.0482,-0.0315,-0.0159,-0.0007,0.0181,0.025,0.0383,0.0426,0.0353,0.0363,0.039,0.0381,0.0485,0.0485,0.0486,0.0486,0.0486,0,-0.0494,-0.0528,-0.0607,-0.0653,-0.0681,-0.0722,-0.0742,-0.0697,-0.0675,-0.0538,-0.0508,-0.034,-0.022,0.0039,0.019,0.0384,0.0411,0.046,0.0444,0.0398,0.0406,0.0396,0.0386,0.0486,0.0486,0.0486,0.0486,0,-0.0532,-0.0563,-0.0614,-0.0715,-0.077,-0.0817,-0.0838,-0.0828,-0.0744,-0.0681,-0.0503,-0.0338,-0.0156,0.0046,0.0198,0.0338,0.0417,0.0463,0.0463,0.0448,0.0401,0.0406,0.0396,0.0487,0.0487,0.0487,0.0487,0,-0.056,-0.0609,-0.0682,-0.0765,-0.0841,-0.0886,-0.0893,-0.0841,-0.08,-0.0634,-0.0575,-0.0343,-0.02,0.0024,0.0167,0.0299,0.0326,0.035,0.0356,0.0357,0.0295,0.0215,0.0272,0,0,0,0,0,-0.0584,-0.0642,-0.0726,-0.0817,-0.0889,-0.0925,-0.0939,-0.0919,-0.0838,-0.072,-0.0639,-0.0454,-0.0182,-0.0046,0.0083,0.0132,0.031,0.0282,0.033,0.0492,0.0491,0.0439,0,0,0,0,0,0,-0.0604,-0.0684,-0.0729,-0.0836,-0.0897,-0.0965,-0.0972,-0.0922,-0.0838,-0.0727,-0.0573,-0.0446,-0.0185,-0.0254,0.0082,0.0126,0.0167,0.0425,0.0427,0.0493,0.0492,0.0491,0.0437,0,0,0,0,0]}]]